This is the latest recevied weather packets stored in our database for station/object K1JO. If no packets are shown the sender has not sent any weather packets the latest 10 day(s).
| Time | Temp. | Humidity | Pressure | Rain* | Wind** | Luminosity | Snow |
|---|---|---|---|---|---|---|---|
| 1777646415 | 12.22° C | 75% | 1002.5 hPa | 0 mm | - | 704 W/m² | - |
| 1777646112 | 12.22° C | 76% | 1002.8 hPa | 0 mm | - | 700 W/m² | - |
| 1777645810 | 11.67° C | 79% | 1002.6 hPa | 0 mm | - | 689 W/m² | - |
| 1777645507 | 11.67° C | 75% | 1002.6 hPa | 0 mm | - | 689 W/m² | - |
| 1777645202 | 11.11° C | 80% | 1002.7 hPa | 0 mm | - | 178 W/m² | - |
| 1777644898 | 11.11° C | 79% | 1002.7 hPa | 0 mm | - | 192 W/m² | - |
| 1777644596 | 11.67° C | 77% | 1002.6 hPa | 0 mm | - | 523 W/m² | - |
| 1777644291 | 11.11° C | 81% | 1002.8 hPa | 0 mm | - | 667 W/m² | - |
| 1777643988 | 10.56° C | 80% | 1002.8 hPa | 0 mm | - | 684 W/m² | - |
| 1777643685 | 10.56° C | 80% | 1002.7 hPa | 0 mm | - | 423 W/m² | - |
| 1777643383 | 10.56° C | 86% | 1002.6 hPa | 0 mm | - | 564 W/m² | - |
| 1777643079 | 10.56° C | 83% | 1002.5 hPa | 0 mm | - | 464 W/m² | - |
| 1777642776 | 11.11° C | 82% | 1002.6 hPa | 0 mm | - | 772 W/m² | - |
| 1777642473 | 10° C | 89% | 1002.6 hPa | 0 mm | - | 595 W/m² | - |
| 1777642169 | 8.89° C | 87% | 1002.6 hPa | 0 mm | - | 664 W/m² | - |
| 1777641867 | 8.89° C | 87% | 1002.7 hPa | 0 mm | - | 264 W/m² | - |
| 1777641566 | 8.89° C | 90% | 1002.6 hPa | 0 mm | - | 310 W/m² | - |
| 1777641266 | 8.89° C | 90% | 1002.7 hPa | 0 mm | - | 362 W/m² | - |
| 1777640963 | 8.33° C | 91% | 1002.7 hPa | 0 mm | - | 275 W/m² | - |
| 1777640660 | 8.33° C | 91% | 1002.6 hPa | 0 mm | - | 243 W/m² | - |
| 1777640356 | 8.33° C | 92% | 1002.6 hPa | 0 mm | - | 253 W/m² | - |
| 1777640053 | 8.33° C | 93% | 1002.7 hPa | 0 mm | - | 234 W/m² | - |
| 1777639749 | 8.33° C | 93% | 1002.6 hPa | 0 mm | - | 205 W/m² | - |
| 1777639448 | 8.33° C | 92% | 1002.6 hPa | 0 mm | - | 223 W/m² | - |
| 1777639144 | 8.33° C | 94% | 1002.4 hPa | 0 mm | - | 269 W/m² | - |
* Rain latest hour (hover to see other rain measurements)
** Current wind speed in m/s (hover to see current wind gust speed)